Theta_e
330 329 330 326 322 323 323 319 319 324 324 325 325 325 326 323 321 325 324 323 325 325 322 322 323 323 323 323 322 322 322 322 320 319 318 319 319 319 318 318 318 317 317 317 318 318 318 318 317 317 318 317 317 317 318 317 317 317 315 315 315 314 314 314 313 312 312 312 312 311 310 309 311 310 309 310 310 311 312 311 312 311 311 311 311
332 331 330 327 325 324 322 320 322 325 324 324 325 324 325 325 324 325 326 325 325 324 323 322 323 324 325 325 323 322 322 322 321 320 319 319 319 319 319 319 318 318 318 318 318 318 318 318 317 318 318 317 317 318 318 317 317 317 316 316 315 314 314 314 313 312 312 312 312 312 311 309 309 309 309 310 310 311 312 311 311 311 311 311 311
335 333 331 328 326 324 323 323 324 324 324 324 324 324 326 327 325 324 325 326 325 323 322 322 324 325 325 326 325 322 322 321 321 320 320 320 319 319 319 319 318 318 318 318 318 318 319 318 318 318 318 317 318 318 317 317 317 317 317 316 315 315 314 314 313 312 312 311 312 313 313 311 311 309 308 310 310 311 311 311 311 311 311 310 311
334 334 332 329 327 325 324 324 323 324 324 324 324 324 326 328 327 325 326 325 323 321 323 325 325 325 325 326 325 323 321 321 321 320 320 319 320 319 319 319 319 318 318 318 318 318 318 318 319 318 318 317 318 319 317 317 317 317 317 316 316 315 314 314 313 312 312 311 312 314 313 312 313 310 308 309 310 311 311 311 311 310 310 310 310
333 334 333 331 328 326 325 325 324 324 324 324 324 322 324 327 327 326 326 326 323 320 323 325 324 324 325 325 325 323 320 319 320 320 319 320 320 320 320 320 319 319 319 318 318 318 318 318 319 318 318 318 319 319 317 317 317 317 317 317 316 315 315 314 313 312 312 311 311 313 313 313 313 309 309 311 310 310 311 311 311 311 310 310 310
332 333 333 332 329 327 327 326 325 325 325 325 324 320 321 327 327 326 326 326 325 323 323 324 323 323 324 325 324 322 320 318 319 321 321 322 322 321 321 320 320 320 319 319 319 319 318 319 318 318 318 318 319 319 317 317 317 316 316 316 315 315 315 315 313 312 312 311 310 311 312 313 311 309 310 312 311 310 311 311 311 311 310 310 309
332 332 333 332 330 328 328 327 326 327 327 327 325 321 322 326 327 326 325 325 325 325 324 325 324 322 322 323 321 320 322 322 323 324 324 323 323 322 321 321 320 320 320 320 320 320 319 319 319 318 318 318 319 318 317 317 316 316 315 315 315 315 315 315 313 312 312 312 311 310 310 310 309 309 310 312 313 312 311 311 311 311 310 310 309
333 333 333 333 331 329 329 329 328 329 329 328 327 325 323 324 325 325 326 325 326 325 324 324 324 321 321 322 321 322 324 325 326 326 324 323 323 322 322 322 320 319 320 321 320 320 319 319 319 319 319 318 318 318 318 317 316 316 315 314 314 314 315 315 313 312 313 312 311 310 310 310 309 309 309 311 314 314 312 311 311 311 310 310 310
333 333 334 334 331 330 330 331 330 330 331 330 329 328 326 324 324 325 325 325 326 326 324 323 323 321 321 323 324 325 326 326 326 325 324 324 323 323 323 323 321 319 319 321 321 321 320 320 320 319 319 318 318 318 317 317 316 315 314 313 313 315 315 314 313 312 313 313 312 311 310 309 308 309 309 310 313 313 313 313 311 311 311 310 310
332 333 334 333 331 332 332 331 332 331 332 332 331 330 327 326 326 325 326 325 325 326 324 323 323 320 321 324 325 326 326 325 325 324 324 324 323 323 323 322 323 322 320 320 321 321 321 320 320 319 319 319 318 318 317 317 316 314 313 313 315 316 315 314 313 313 313 313 312 311 310 309 309 310 309 309 311 312 313 313 312 311 311 311 310
332 333 334 332 331 332 332 332 332 332 333 333 332 331 328 327 327 326 326 325 325 326 324 323 323 321 321 324 326 326 326 325 325 325 325 325 324 323 322 322 323 324 323 322 321 321 321 320 320 319 320 320 319 319 317 316 316 313 312 314 316 316 315 314 314 313 313 313 312 311 310 309 309 310 309 310 311 312 313 314 312 310 311 311 310
333 333 335 335 334 334 333 332 333 333 333 333 332 332 329 327 327 326 326 325 324 325 324 322 323 322 320 323 325 326 326 326 326 326 325 325 325 324 323 322 322 324 323 323 322 322 322 322 321 321 321 320 320 318 317 317 316 313 313 315 316 316 315 315 314 313 313 313 311 311 310 309 308 309 310 311 311 311 312 314 312 310 311 311 310
333 335 337 339 338 335 332 332 333 333 333 333 332 332 329 327 326 325 325 325 324 325 324 322 323 322 320 322 323 324 325 325 325 325 325 324 323 323 323 322 322 324 324 323 323 323 323 322 321 321 321 320 319 318 317 317 316 313 313 315 315 315 316 315 314 313 314 313 311 311 309 309 309 309 310 311 311 311 311 313 312 311 311 311 310
333 336 338 339 338 335 333 333 333 333 333 333 332 331 329 328 326 325 325 324 324 324 323 322 322 321 319 322 324 322 322 324 324 325 325 323 321 321 322 323 323 323 323 323 323 323 323 321 320 321 320 319 319 318 317 317 316 313 312 315 315 315 316 315 313 313 313 312 311 310 308 308 309 309 309 311 311 312 311 312 313 311 311 310 310
334 336 337 338 337 334 334 333 333 333 333 332 332 331 330 329 327 325 325 324 324 323 322 322 323 323 319 320 322 322 321 323 324 324 323 322 322 321 321 322 323 323 323 322 322 322 322 321 321 320 320 319 319 318 317 317 317 313 312 314 314 315 316 314 313 313 312 311 310 309 308 308 309 309 310 311 311 312 312 312 312 312 312 311 310
334 335 337 338 336 334 334 334 333 333 332 333 333 332 331 331 329 328 327 326 325 324 323 323 324 324 321 319 319 321 323 324 324 323 323 323 324 323 322 322 322 322 322 322 323 322 322 321 321 320 320 319 319 318 317 316 317 314 312 313 314 315 316 314 313 312 310 309 308 308 308 308 309 310 310 310 311 312 312 311 311 311 312 312 312
334 335 337 338 336 335 335 335 333 333 332 332 333 333 332 332 331 330 329 328 327 326 326 325 325 324 323 321 319 320 323 324 324 324 323 323 324 325 324 323 322 321 320 321 322 323 322 322 321 320 320 320 319 318 317 316 317 315 312 312 314 315 315 314 313 311 309 307 307 307 307 308 309 310 310 310 311 311 311 311 310 310 311 311 313
335 336 336 337 336 335 335 335 334 334 333 333 333 333 333 333 332 332 331 330 330 329 328 328 327 326 324 323 320 319 320 321 322 322 322 322 322 322 324 323 323 322 321 320 320 321 322 322 321 320 320 321 320 319 318 317 317 316 313 312 313 314 314 313 312 310 308 307 306 306 306 308 309 309 309 311 311 311 311 311 310 310 310 310 311
335 336 337 338 337 335 335 335 335 334 334 333 333 333 333 333 333 332 332 332 332 331 331 330 330 329 327 325 323 320 319 319 319 320 320 321 321 321 322 321 322 323 323 322 321 320 320 320 320 321 321 321 321 320 319 318 317 316 313 311 312 313 314 312 311 311 309 307 306 305 306 308 309 309 310 311 311 310 311 310 309 309 310 310 310
336 336 337 338 337 335 336 336 335 335 334 334 334 333 334 333 333 333 333 333 333 333 332 332 332 331 330 329 327 324 322 321 321 320 320 319 320 322 323 322 322 323 322 322 322 322 321 320 321 322 322 321 321 321 319 319 317 316 313 311 310 312 313 313 312 311 310 308 306 305 306 308 308 309 311 311 310 310 311 310 308 308 309 311 311
336 336 337 338 337 336 336 337 336 335 335 334 334 334 334 334 333 334 333 333 333 333 333 333 333 333 332 331 329 328 325 324 323 322 321 320 319 320 321 323 323 323 322 321 321 322 322 321 322 322 322 321 321 320 319 319 317 315 312 310 310 311 314 314 313 311 310 308 307 306 306 307 308 309 310 310 310 310 310 309 308 307 309 311 312
336 336 336 337 337 335 336 337 336 336 336 335 335 335 334 334 334 334 334 334 334 334 334 334 334 333 333 332 331 329 328 327 325 324 323 322 320 319 320 321 322 322 322 321 321 321 321 322 322 322 322 321 321 320 319 318 316 314 312 311 311 311 312 313 312 312 310 309 308 306 305 306 308 309 309 309 308 309 309 308 306 307 309 311 312
335 335 335 335 334 334 336 337 337 337 337 336 336 335 335 335 335 334 334 334 334 334 334 335 334 334 334 333 332 331 330 328 327 325 324 323 322 321 320 321 322 322 322 322 322 321 320 321 321 321 321 320 320 319 318 317 316 314 313 312 312 310 310 310 310 311 310 308 308 306 305 307 308 308 308 308 307 308 309 307 305 307 311 312 312
335 334 335 334 333 333 334 335 336 337 337 338 337 336 336 336 335 335 335 334 334 335 335 335 335 335 334 334 333 332 331 330 328 327 326 325 324 324 322 321 320 321 321 322 322 321 321 321 321 321 320 320 320 319 318 317 315 314 313 313 313 311 309 309 310 310 310 309 309 308 306 307 307 307 307 306 306 307 308 306 306 309 312 312 312
336 334 336 335 334 334 334 333 334 335 337 338 337 337 336 336 336 335 335 335 335 335 336 336 335 335 335 334 333 332 331 331 330 329 328 328 327 327 325 323 321 321 320 320 321 321 321 322 322 322 321 320 320 319 319 318 316 315 314 314 313 311 308 309 309 310 310 310 310 309 308 306 307 307 305 304 305 306 307 307 308 311 312 312 312
336 336 337 336 335 334 333 332 333 334 336 336 336 337 336 336 336 336 336 336 336 335 336 336 336 336 335 335 333 332 332 331 331 331 330 331 330 329 329 327 324 323 322 321 320 320 321 321 321 321 321 321 320 320 319 318 316 315 314 313 312 310 308 307 307 308 310 310 311 311 309 307 307 305 303 303 304 305 307 308 309 311 312 312 312
336 336 336 337 338 337 333 330 331 333 335 335 335 336 336 336 336 336 336 336 336 336 336 336 336 336 335 335 334 333 333 333 332 332 332 332 332 332 331 330 328 326 325 323 322 321 321 321 321 321 321 321 320 320 319 318 317 315 314 313 311 310 309 306 306 308 310 310 310 310 309 307 307 304 302 303 304 305 307 308 309 311 312 312 312
336 336 338 343 345 345 338 330 329 331 332 333 333 334 335 336 336 336 336 336 336 336 336 336 336 336 336 335 335 334 334 333 333 333 333 333 333 333 333 332 331 329 328 326 325 324 322 322 322 321 321 321 320 320 319 318 317 316 314 312 310 310 308 307 308 310 309 309 310 310 307 307 306 304 302 304 304 305 307 308 309 311 312 312 312
336 337 343 347 347 348 344 333 329 330 331 331 332 333 334 334 334 335 335 335 335 334 335 336 336 336 336 335 335 334 334 334 334 333 334 334 334 334 334 333 332 331 331 329 327 325 324 323 322 322 322 321 320 320 319 318 317 315 314 312 310 309 308 307 309 309 308 309 310 309 307 306 306 304 304 305 305 305 307 309 309 311 311 312 312
337 339 343 346 345 348 347 337 330 331 332 331 331 332 332 333 332 333 333 334 334 334 334 335 336 336 336 335 335 335 335 335 335 335 335 335 335 335 334 333 333 332 330 329 327 326 324 323 323 322 322 322 321 320 319 318 316 315 313 311 310 309 307 307 308 306 305 308 309 309 307 306 306 305 305 307 307 305 307 308 309 310 311 311 311
338 339 342 346 345 347 349 341 333 332 332 332 332 332 332 333 333 334 335 335 335 335 336 336 336 334 334 335 334 334 334 334 334 334 334 334 333 333 333 333 332 330 330 329 328 327 326 325 324 323 323 323 322 321 319 318 316 314 313 312 312 311 308 306 306 304 304 307 309 309 307 307 307 306 305 307 308 307 307 308 309 309 310 311 311
337 338 342 346 346 347 348 341 333 333 334 333 334 335 335 335 335 335 335 336 337 337 335 332 328 325 325 326 326 327 327 326 326 326 326 326 327 327 327 327 326 325 326 327 328 328 328 327 326 325 325 324 323 322 321 319 316 313 312 313 314 313 308 305 304 304 305 308 309 308 306 306 307 307 306 307 307 308 308 308 308 309 309 310 311
335 338 341 344 344 342 339 334 332 334 336 335 335 336 336 336 337 336 337 336 333 330 326 323 320 320 321 321 321 322 322 321 321 320 321 322 322 321 321 320 319 319 321 322 323 325 326 327 326 326 326 325 324 324 322 320 316 313 313 313 314 312 308 305 304 304 306 308 308 306 306 306 306 307 307 307 307 309 310 309 309 309 309 310 311
334 336 339 342 340 335 332 333 335 336 336 336 336 337 336 335 334 333 331 328 325 322 320 319 320 321 321 321 321 321 321 320 319 320 321 320 319 318 316 315 315 317 319 320 320 321 322 323 325 325 326 326 325 324 323 320 317 314 314 314 314 312 308 306 306 304 304 307 308 307 307 306 307 308 307 307 308 309 309 309 308 310 310 309 310
334 336 340 341 337 333 333 335 336 336 337 336 335 334 332 329 326 324 323 321 320 319 319 319 319 320 320 320 320 319 319 318 318 321 320 318 316 315 313 313 314 316 317 318 319 320 320 320 321 323 325 325 324 324 323 322 318 315 314 314 313 310 307 307 308 303 301 306 309 307 307 307 307 308 307 307 308 307 307 307 308 310 310 308 309
334 336 339 338 335 333 335 336 336 336 335 332 328 326 325 322 321 321 320 320 319 319 318 317 319 319 318 318 318 317 317 317 318 319 317 314 313 312 312 312 313 314 315 316 317 318 319 319 319 319 322 323 324 323 323 322 319 316 315 313 311 309 306 308 309 302 299 306 309 305 305 307 307 308 308 306 305 305 305 307 309 310 309 308 309
332 333 335 335 334 335 336 336 334 331 329 325 322 322 321 320 320 320 319 319 318 317 316 317 318 317 316 317 316 316 317 317 317 315 312 311 312 311 312 312 311 312 312 313 314 316 318 320 319 318 319 320 322 323 322 322 320 316 314 313 311 308 307 309 309 302 299 306 308 304 305 306 306 307 308 306 304 304 304 307 309 310 309 308 309
333 333 334 333 333 334 333 330 326 323 322 322 321 321 321 320 319 318 318 317 315 315 315 316 316 315 314 315 315 315 315 314 312 311 310 311 311 311 311 311 311 311 311 311 313 314 315 316 317 317 318 319 321 322 322 321 320 317 314 313 311 309 308 309 308 301 297 303 307 306 305 306 305 307 306 305 303 303 304 307 310 310 309 308 309
333 333 331 328 327 326 325 323 321 320 320 321 321 320 320 319 318 318 316 314 313 313 315 315 314 313 312 313 313 313 312 311 310 311 311 311 311 311 311 311 311 312 311 311 312 312 312 313 314 315 316 318 321 322 322 321 320 317 315 313 311 309 308 308 308 300 295 301 307 306 305 305 306 306 305 304 303 303 305 308 309 310 309 309 309
330 328 325 323 323 322 321 321 320 320 320 320 319 319 319 318 317 317 315 312 311 313 314 314 312 311 311 312 312 311 311 311 311 311 311 311 311 311 311 311 311 311 310 310 311 311 311 311 311 311 312 314 317 320 321 322 320 319 316 313 311 309 307 309 307 298 294 301 307 306 305 305 306 306 305 303 302 304 306 308 309 310 310 309 309
326 325 323 322 321 321 321 320 320 320 319 319 318 318 317 317 316 315 314 312 310 311 312 312 311 311 311 311 311 311 311 311 311 311 311 311 311 310 310 309 309 309 309 308 308 309 309 309 310 310 310 311 314 316 319 321 320 319 316 313 311 310 309 309 305 296 294 303 307 305 305 305 305 306 305 300 300 303 306 307 309 310 310 310 310
324 323 322 321 321 321 321 320 320 319 318 318 318 317 316 316 315 315 314 313 311 310 311 311 311 311 312 311 311 311 311 311 311 310 310 310 310 309 308 308 307 307 307 306 306 306 307 307 308 308 309 310 312 315 318 320 319 319 317 314 313 311 310 308 303 295 297 305 307 305 304 304 303 303 300 297 297 302 305 306 308 310 310 310 310
322 321 321 321 321 320 320 320 320 319 318 317 317 316 315 315 315 314 314 313 311 309 310 311 312 311 311 310 310 310 311 311 310 310 309 309 308 308 307 306 305 305 305 304 304 304 304 305 305 306 306 308 309 312 316 318 319 318 316 314 312 310 309 307 302 297 301 307 307 305 303 301 299 298 296 295 296 300 303 305 305 306 307 307 308
321 321 321 320 320 319 319 319 319 319 318 318 317 316 315 314 314 313 313 312 310 309 311 312 312 311 310 310 310 310 310 310 309 309 308 308 307 306 305 304 304 303 303 303 303 303 303 303 303 303 304 306 307 308 311 314 317 317 316 313 310 309 308 306 302 300 303 307 306 304 301 298 297 297 296 296 296 296 300 304 304 302 304 306 307
320 320 320 319 319 318 318 318 318 318 318 317 316 315 314 313 312 311 311 310 310 310 312 312 311 310 309 309 310 310 310 309 308 308 308 307 305 305 304 303 302 302 302 302 302 302 302 302 301 302 303 304 306 307 308 310 313 315 315 313 310 308 307 306 303 301 303 307 306 303 299 297 297 298 297 297 297 295 296 302 304 303 303 305 308
320 320 320 319 319 318 317 317 316 316 315 315 314 313 312 311 310 310 310 310 310 312 312 312 310 309 308 309 309 309 309 308 307 307 307 305 304 304 303 302 302 301 301 301 301 301 301 301 301 302 303 303 304 305 306 307 309 312 313 312 309 307 306 305 303 301 303 306 305 301 300 299 299 299 298 297 297 295 294 299 304 303 302 305 308
319 319 319 319 319 318 317 316 315 314 313 311 311 311 310 310 310 309 309 310 311 312 312 311 310 309 309 309 309 309 308 307 307 307 306 304 304 303 303 302 302 301 301 301 301 301 300 300 301 302 302 302 302 303 304 305 306 308 309 309 307 305 304 304 303 302 304 304 303 301 301 301 300 299 298 297 297 295 293 296 302 303 302 304 307
319 319 319 319 318 317 316 315 313 311 310 310 310 310 310 310 309 309 309 311 311 311 311 311 310 309 309 309 309 308 307 307 306 305 304 304 303 303 303 302 301 301 301 301 301 300 300 300 301 302 302 302 301 301 302 303 305 306 306 306 305 304 303 302 302 303 303 303 302 301 301 300 299 298 296 296 298 299 297 296 299 302 301 303 306
319 318 318 317 316 315 313 312 310 309 309 310 310 310 310 310 309 309 310 311 310 310 310 310 309 309 309 308 308 307 307 306 305 304 303 303 303 303 302 302 301 301 301 301 301 300 300 300 301 301 301 301 300 300 301 302 304 306 307 307 305 305 303 302 302 303 302 301 301 301 300 299 298 297 296 296 298 299 299 298 299 301 301 302 306
318 318 317 316 315 313 311 310 309 309 309 310 310 310 310 310 309 309 310 310 309 309 309 308 308 308 307 307 307 307 306 306 304 303 303 303 303 302 302 301 301 301 301 301 300 300 300 300 300 301 300 299 299 299 301 302 304 306 308 307 306 305 304 302 302 303 302 301 300 300 299 299 298 296 296 296 296 297 298 298 299 301 302 303 307
318 318 317 316 314 312 310 309 309 309 309 309 310 310 310 309 309 309 310 309 309 309 308 307 307 306 306 306 306 306 306 305 303 303 303 302 302 302 301 301 301 301 301 300 300 300 299 298 299 301 300 299 299 300 301 302 304 306 307 307 306 304 303 302 302 302 301 300 300 299 298 299 298 297 296 295 295 296 298 299 300 301 303 306 308
Wind_Speed
10 14 20 23 25 25 22 19 20 20 20 20 19 18 17 15 14 14 13 12 13 12 12 12 11 10 11 12 12 12 13 13 10 9 7 8 6 5 5 4 5 5 5 6 7 8 8 6 4 4 7 11 10 11 11 9 10 8 8 10 11 14 13 14 17 16 15 12 9 7 8 10 7 13 19 14 17 23 22 24 25 25 26 25 26
8 11 16 21 22 24 22 21 22 22 22 21 19 18 17 16 15 15 15 14 14 14 13 13 11 9 9 9 8 7 8 10 11 12 10 9 8 7 5 4 4 4 4 5 5 5 5 5 4 5 9 10 7 10 10 7 9 8 9 11 10 13 13 13 17 15 13 10 7 3 2 5 4 10 18 13 14 21 22 24 26 26 27 26 27
8 9 13 19 22 23 22 22 24 23 22 21 19 17 17 18 16 15 16 15 15 15 13 12 9 8 8 6 5 4 4 6 9 11 11 10 9 9 6 5 6 5 4 5 6 5 3 3 4 6 10 8 7 10 8 7 9 8 11 12 10 12 12 11 14 13 13 13 8 3 1 3 2 6 16 14 13 19 22 25 26 27 28 27 27
9 9 10 15 19 21 22 22 24 22 21 21 19 17 18 19 17 15 15 15 15 15 13 12 9 8 7 6 5 4 4 5 7 10 10 9 9 10 9 8 9 8 7 7 8 6 5 5 5 7 9 7 8 10 7 6 8 8 11 11 10 11 10 9 10 10 13 13 6 2 2 3 1 4 10 11 13 17 21 26 26 28 29 27 27
11 11 10 12 15 19 22 23 23 22 22 21 20 19 18 18 18 16 15 14 13 13 13 13 11 9 7 7 7 6 6 6 8 11 10 8 9 9 9 9 9 8 7 7 7 7 7 7 6 8 8 7 9 9 6 7 7 9 10 10 10 10 9 7 7 7 9 12 8 3 2 2 2 5 6 7 12 15 19 24 24 27 29 26 27
11 12 12 12 14 18 20 22 23 23 22 20 18 18 18 18 17 15 15 14 13 12 12 13 13 12 11 10 9 9 8 8 9 9 9 8 8 8 8 8 9 8 7 9 8 7 9 8 7 8 7 8 10 7 6 7 8 9 8 9 10 9 10 7 5 6 5 8 9 5 2 1 4 6 4 5 8 8 15 24 24 26 29 26 27
8 10 11 11 13 15 17 21 24 23 22 20 16 16 18 18 17 16 15 15 14 12 12 13 14 14 13 12 11 10 8 7 6 7 8 9 9 7 7 8 9 9 9 9 9 9 9 8 6 8 8 8 7 5 7 8 8 8 8 9 9 9 11 7 3 5 3 4 6 4 3 3 5 5 2 4 5 3 9 18 20 24 28 25 26
8 9 10 11 13 16 18 22 25 24 22 20 18 17 18 19 18 17 17 16 15 14 13 14 14 14 13 12 11 10 8 7 7 7 8 10 10 8 9 9 8 9 9 7 7 9 9 7 8 9 8 7 5 6 8 9 9 9 9 10 9 10 11 6 3 5 4 3 4 4 4 6 8 6 4 4 3 4 7 10 14 20 26 26 25
10 11 11 11 15 19 22 24 25 24 21 20 19 18 18 18 18 18 17 16 16 14 14 15 14 14 13 12 11 11 10 10 10 10 9 9 10 10 11 10 7 8 9 9 8 8 8 9 10 9 8 8 8 8 9 9 10 10 10 10 9 10 9 3 4 7 6 4 4 5 5 7 9 8 7 6 3 4 5 6 11 16 21 25 26
9 11 12 13 18 22 23 23 23 23 21 19 18 18 18 18 18 19 18 17 16 15 15 15 14 14 14 14 13 13 12 12 12 11 10 10 11 12 13 12 10 9 10 10 9 9 10 11 11 10 10 10 10 11 11 10 10 10 9 7 7 9 5 2 5 7 6 4 4 6 7 7 6 4 5 6 4 3 3 5 8 10 11 18 25
8 9 10 12 18 20 20 21 22 22 21 19 19 19 19 19 19 19 18 17 16 16 15 16 15 14 15 16 14 14 13 13 12 12 12 13 15 14 13 14 14 12 11 11 11 12 12 11 11 11 11 12 12 12 11 9 10 10 8 6 6 7 4 4 6 7 6 4 3 5 7 6 4 3 6 6 3 3 3 4 6 9 8 11 21
8 8 8 8 10 13 16 19 20 20 20 20 21 21 20 19 20 19 19 18 17 16 16 16 16 15 16 17 16 15 14 14 14 14 13 13 15 16 15 14 14 13 13 13 13 12 11 11 11 12 12 12 11 10 9 8 10 10 7 6 7 6 6 6 6 7 6 3 2 4 6 6 5 7 8 8 6 4 4 3 6 10 7 10 19
9 8 8 8 8 10 14 17 18 20 21 22 22 22 21 20 20 20 19 19 18 18 17 16 17 17 16 17 17 17 16 15 15 15 15 12 13 14 13 13 12 12 12 13 13 12 11 12 12 13 13 11 10 9 8 8 10 9 6 7 7 7 8 7 6 7 5 1 2 5 6 5 6 9 10 9 8 7 5 3 6 9 5 7 16
9 9 9 8 9 10 15 18 19 21 23 24 24 23 22 21 21 20 20 19 18 18 18 18 18 18 17 18 18 17 17 16 15 16 16 15 14 13 12 11 11 11 12 13 13 12 12 12 12 13 12 11 10 9 8 8 10 9 7 7 7 7 8 6 6 6 3 1 3 6 7 5 7 11 11 9 9 9 8 4 5 7 5 5 9
9 9 10 9 10 13 16 18 20 22 24 25 25 24 23 22 22 22 20 20 19 19 19 19 19 18 17 18 18 17 16 16 16 16 17 16 16 15 14 12 12 12 13 13 14 14 14 13 12 12 12 11 10 10 9 9 10 9 7 7 7 8 7 4 6 6 3 3 5 7 8 7 9 10 8 8 9 9 9 7 5 4 4 5 4
9 9 9 9 11 15 17 18 20 23 24 25 26 25 25 24 23 23 22 21 20 19 19 19 19 18 17 18 18 18 18 18 18 18 17 16 16 16 16 15 15 15 15 15 15 16 15 14 14 14 13 12 12 11 10 10 11 9 8 7 7 7 6 4 6 6 3 4 6 8 9 8 9 7 5 6 8 7 8 10 10 5 2 4 4
10 10 10 9 11 14 17 19 20 22 24 26 27 27 27 25 24 24 23 22 21 20 19 18 18 18 17 17 18 19 20 20 20 19 18 16 16 16 17 17 17 17 17 16 16 16 16 15 15 15 14 14 13 12 11 11 11 9 8 7 7 8 7 6 6 5 3 5 6 8 9 9 7 4 5 7 6 6 7 10 12 9 3 2 3
11 10 10 10 10 14 17 19 22 24 26 27 28 28 27 26 25 25 25 25 23 21 20 19 19 18 18 17 17 18 20 21 21 21 20 19 18 18 18 18 18 17 17 17 17 17 17 16 15 15 15 14 13 12 11 10 11 10 8 6 7 9 8 6 5 4 4 5 6 8 8 9 7 5 6 6 5 6 7 9 13 12 8 4 2
9 9 8 8 10 13 18 20 22 25 26 27 28 28 28 27 26 25 25 25 24 22 21 20 20 19 18 17 16 17 18 19 19 19 20 20 20 20 20 20 20 19 18 18 19 19 18 17 16 15 15 15 14 14 13 11 12 11 8 6 7 8 7 5 5 4 4 4 5 8 8 7 8 8 6 5 4 6 7 8 11 11 12 11 5
9 9 9 8 10 14 19 21 23 26 27 27 27 27 28 27 27 26 26 26 25 23 22 21 21 20 19 18 17 17 17 18 18 18 19 20 20 20 20 20 20 20 19 19 20 20 19 18 17 16 16 15 15 15 14 13 13 12 10 6 6 8 9 7 6 5 4 3 4 6 7 7 8 8 5 4 4 5 6 8 9 10 11 13 11
10 9 9 9 10 15 20 21 23 25 26 26 26 27 28 28 28 28 27 27 27 25 24 23 22 21 20 20 19 18 17 17 17 18 18 19 19 20 20 20 20 20 20 18 18 18 18 18 18 17 16 16 15 15 15 14 12 11 9 6 7 8 8 8 8 7 4 3 3 5 6 6 7 6 4 4 6 6 6 7 9 10 10 10 11
10 10 10 9 10 13 17 20 20 22 23 25 25 26 27 28 29 29 28 28 28 27 25 24 23 22 22 21 20 18 17 17 17 18 18 18 18 19 19 20 21 21 20 19 18 17 16 17 17 17 16 16 15 15 15 14 12 10 10 10 9 7 6 7 8 8 5 3 3 5 6 5 5 5 4 6 8 7 6 7 9 10 8 8 9
11 10 10 8 10 14 16 18 19 21 23 25 25 26 27 29 29 29 29 29 29 27 26 24 23 22 22 21 21 20 18 18 18 18 19 19 19 18 18 20 21 21 21 21 21 20 18 17 17 18 17 16 16 15 14 14 13 12 13 11 8 7 7 7 6 5 4 1 3 6 6 4 4 6 7 8 8 6 5 8 10 8 6 7 8
10 9 8 8 10 12 13 14 17 19 21 24 25 26 27 28 28 29 30 30 29 28 26 25 24 23 22 22 22 21 19 19 19 19 19 19 19 19 19 19 21 21 22 22 21 20 20 19 19 19 19 18 18 16 15 15 15 14 13 12 10 10 9 8 5 3 4 2 3 6 6 4 4 7 8 8 7 5 7 10 10 7 6 7 9
9 9 8 8 9 10 10 13 17 19 20 23 25 25 26 27 28 29 30 30 29 28 26 25 25 24 23 23 22 21 20 19 19 19 19 19 20 20 19 19 19 20 21 21 20 20 20 20 20 20 19 19 19 17 16 16 18 16 15 15 15 12 10 9 7 5 5 4 3 4 4 4 5 7 8 7 6 6 9 11 9 6 7 8 9
10 10 9 9 9 8 9 13 18 20 21 23 24 25 26 27 29 30 30 29 28 27 26 25 24 24 24 23 23 21 20 19 19 20 20 20 20 20 20 20 19 19 19 20 20 20 21 22 22 21 21 20 20 19 18 18 20 19 17 17 16 13 10 10 10 8 6 5 5 4 4 4 5 6 5 4 4 7 10 11 9 6 7 9 9
10 10 9 8 8 8 10 13 16 19 20 22 25 26 26 26 29 29 29 28 28 27 25 24 24 24 23 23 22 21 19 19 19 20 19 20 20 20 21 21 20 19 19 20 21 21 21 22 22 22 22 22 21 21 20 20 21 22 20 18 15 13 10 9 9 8 6 6 5 4 3 4 5 5 2 1 3 6 9 11 9 6 7 9 10
9 9 9 8 7 8 9 12 14 17 20 21 24 25 26 27 28 28 28 27 26 24 22 23 23 22 22 21 20 19 19 19 20 20 21 21 21 22 22 22 22 22 22 23 23 23 22 22 23 22 21 22 22 23 23 22 24 24 22 19 16 13 12 10 9 8 7 6 5 3 2 4 4 3 1 2 2 4 8 11 10 7 6 9 11
9 10 9 8 7 7 8 10 12 16 19 21 22 24 24 25 24 23 23 23 22 21 20 20 18 17 16 16 16 17 18 18 19 19 20 21 22 22 23 23 23 24 25 25 25 25 24 24 24 22 20 22 23 24 25 25 25 24 22 19 15 11 11 10 10 9 7 5 3 3 3 4 2 1 3 3 2 3 6 10 11 9 8 9 10
11 10 9 8 7 7 7 8 10 12 15 17 18 19 19 17 14 13 14 15 15 15 14 12 10 10 10 11 12 14 14 16 17 18 20 21 21 22 22 23 23 24 25 25 25 25 25 24 24 23 22 23 23 25 27 26 24 23 22 18 12 9 11 12 11 10 7 5 4 4 4 5 4 3 4 3 2 2 4 7 9 10 9 8 10
12 10 8 7 7 7 6 7 9 10 12 13 12 12 11 10 8 9 10 11 10 10 8 5 1 2 4 5 6 7 8 9 11 13 15 16 17 17 18 19 20 20 21 21 22 23 23 22 23 23 23 23 24 25 26 25 24 23 22 17 11 11 13 15 13 11 9 8 8 5 4 8 8 6 5 3 1 1 2 3 5 8 8 8 8
12 10 9 8 8 8 8 8 10 12 13 14 14 13 13 14 14 13 13 12 10 8 7 8 10 12 12 11 10 10 10 12 12 13 12 11 10 11 11 12 14 15 16 16 17 18 19 19 19 20 22 23 24 26 26 26 24 23 21 17 13 14 15 16 15 13 11 10 9 6 6 10 10 8 6 4 4 3 0 1 2 4 5 5 6
13 11 11 10 8 8 10 11 13 15 17 18 19 19 18 17 16 15 13 13 12 13 15 17 18 18 17 16 15 14 15 15 16 16 15 14 14 15 15 16 17 17 16 15 15 16 17 16 17 19 20 21 22 23 24 25 24 23 22 18 14 15 18 16 14 14 13 12 10 8 8 9 8 8 8 6 5 5 2 0 2 3 3 4 5
12 12 11 10 8 9 13 15 18 21 22 22 22 21 20 18 18 17 16 17 19 19 19 20 19 18 18 17 16 16 16 17 17 16 14 14 15 16 17 18 18 18 17 17 16 17 17 17 17 18 19 19 19 19 20 22 22 22 22 19 15 16 19 17 13 13 13 12 11 10 9 7 7 7 8 8 6 4 3 1 3 2 2 4 4
11 11 11 9 9 11 14 18 22 24 23 22 21 21 22 23 23 23 22 21 21 20 19 20 19 18 18 17 17 18 17 17 18 17 15 15 17 18 19 19 19 19 19 19 18 18 18 18 18 18 17 18 18 18 18 18 19 20 21 18 15 16 18 16 13 12 13 13 12 10 9 9 9 9 8 8 7 4 3 1 3 1 1 2 1
13 12 12 12 14 17 19 21 23 23 22 22 24 26 27 26 25 24 22 21 20 20 20 19 19 19 18 18 18 18 18 18 18 17 17 18 19 19 20 20 20 21 21 20 20 20 20 19 18 17 17 17 17 17 16 16 17 19 20 17 15 17 18 17 13 11 13 14 12 11 11 11 11 10 10 10 8 6 4 2 1 2 4 3 3
12 13 15 17 21 23 24 23 22 23 25 26 27 28 28 26 24 23 22 21 21 21 19 19 19 19 18 18 17 18 19 19 18 19 19 20 20 20 21 21 22 22 22 22 22 22 22 21 21 20 19 18 18 16 15 15 16 18 19 18 18 19 19 18 14 11 13 15 12 11 11 10 10 11 11 10 7 6 4 2 3 7 7 6 7
14 17 18 20 22 24 24 25 26 25 27 29 28 27 27 25 23 22 22 22 21 20 19 18 18 18 18 18 18 19 19 20 20 20 20 20 19 20 20 21 21 22 23 23 23 23 22 21 22 21 19 18 18 16 15 14 15 18 20 19 20 21 20 19 14 12 14 16 13 11 9 8 10 12 11 8 6 5 4 3 5 9 9 9 9
19 21 21 22 24 27 28 29 28 25 26 29 28 26 26 24 23 22 23 22 21 19 18 18 18 18 19 19 18 18 19 20 20 20 19 19 19 20 20 21 21 22 22 22 22 22 21 21 22 22 20 18 17 16 15 13 14 17 19 19 21 21 21 20 15 13 15 16 13 11 10 9 11 12 9 7 6 5 5 4 6 10 11 9 9
20 24 26 26 28 29 28 27 26 24 26 29 28 27 27 24 22 23 22 20 19 17 17 17 17 18 18 18 18 19 19 20 20 20 20 20 21 22 23 22 22 21 21 22 22 22 21 20 22 23 22 20 18 15 14 13 13 15 17 19 21 22 23 22 17 15 16 16 14 13 12 12 13 12 8 6 6 6 5 3 6 12 13 11 9
24 27 28 27 27 28 27 25 25 26 27 28 28 28 26 23 22 22 20 18 17 16 16 16 17 17 17 17 18 19 19 19 20 21 22 22 23 23 23 23 23 23 24 25 25 24 24 22 22 21 20 19 17 15 14 13 12 13 16 18 20 22 24 22 18 16 17 17 16 16 16 15 14 11 8 6 7 7 5 5 7 11 11 9 9
25 27 28 28 26 26 27 25 24 26 26 27 28 28 25 23 23 21 17 16 16 15 15 16 16 16 17 17 18 18 18 19 21 22 22 23 22 22 23 25 26 26 27 27 27 26 26 25 25 24 22 21 19 16 14 12 11 11 14 18 20 22 22 19 16 16 18 18 18 18 18 16 12 10 9 7 8 8 6 6 9 10 8 7 7
22 24 28 30 26 24 25 24 23 25 25 24 27 27 24 23 21 17 14 14 15 15 14 15 15 16 17 17 16 16 18 20 21 22 22 21 21 22 24 26 27 27 27 27 27 27 26 26 27 26 25 23 22 19 15 12 11 11 11 15 19 21 20 17 15 17 19 19 19 19 17 15 12 11 11 9 9 8 7 6 7 9 9 7 6
22 24 28 31 27 24 24 24 24 25 24 23 25 26 24 21 17 14 13 13 14 14 13 14 15 16 17 16 15 16 18 20 21 21 20 19 20 22 24 25 26 26 25 23 23 23 23 24 25 26 26 26 24 22 20 15 12 12 11 12 17 20 19 16 14 15 17 19 20 19 17 15 14 13 13 13 11 8 8 8 7 7 7 6 5
23 25 28 30 29 27 26 25 24 25 24 23 23 24 22 19 15 13 13 13 13 13 13 14 15 16 15 14 14 15 17 18 19 19 17 18 20 22 23 24 25 24 22 20 20 20 20 21 21 23 25 26 25 23 22 19 14 13 11 10 14 18 18 16 15 15 16 19 20 19 17 16 16 15 14 15 12 9 9 10 8 6 6 6 6
23 25 28 30 29 27 26 25 24 25 25 23 22 22 21 18 15 13 13 12 12 13 13 14 15 15 13 13 14 14 16 16 16 15 15 17 19 20 20 21 22 21 20 19 18 18 19 19 20 22 23 25 26 25 23 20 16 12 9 7 11 16 17 16 16 15 15 18 20 20 19 18 17 15 13 12 10 8 10 12 10 6 6 6 6
24 26 29 29 27 24 24 24 23 23 24 23 22 21 20 17 15 14 13 12 13 13 13 12 12 12 13 14 14 14 15 15 14 13 14 17 18 18 18 18 18 18 18 18 18 18 18 18 19 19 20 23 26 26 25 22 17 12 9 6 10 15 17 16 17 15 14 18 22 21 19 17 15 13 12 10 8 6 8 11 11 8 7 6 6
24 27 28 27 25 23 23 23 22 23 24 23 21 19 17 15 15 14 13 13 14 13 11 10 9 11 14 14 14 15 14 13 12 14 15 16 15 16 16 15 15 16 17 17 18 17 16 17 17 15 16 20 24 27 28 25 18 14 11 8 10 15 18 18 17 15 16 21 23 21 17 15 13 11 11 10 8 6 6 9 10 9 7 6 6
23 26 28 27 26 25 25 24 23 24 24 22 20 18 16 15 15 13 13 14 13 12 12 12 12 13 15 14 14 14 13 11 12 14 15 14 12 12 14 14 14 15 16 16 16 17 16 17 17 15 14 16 19 26 30 26 18 14 12 11 11 13 17 19 17 17 20 24 23 19 17 15 12 11 10 9 7 6 6 8 9 9 7 6 7
24 26 28 28 27 27 26 25 24 24 23 21 19 17 15 14 14 12 12 13 12 12 14 15 15 16 16 14 14 14 12 11 13 14 14 12 10 10 12 13 13 14 16 15 14 16 17 18 17 16 17 18 19 24 29 26 18 13 10 10 10 11 16 19 18 20 23 24 22 19 17 14 11 10 9 8 7 6 7 8 9 8 7 6 7
24 26 26 26 26 27 26 24 23 23 21 19 17 15 14 13 13 11 11 12 12 13 15 16 16 16 15 15 15 15 12 11 12 13 12 11 11 11 12 14 14 14 15 14 13 15 18 18 17 16 20 23 23 24 27 26 19 13 8 7 9 11 15 19 20 22 24 23 21 19 16 12 9 8 8 7 6 6 8 10 10 8 6 6 9
Wind_Direction
196 181 179 181 182 182 184 187 186 183 186 190 191 193 193 193 193 192 196 204 208 213 214 216 224 235 251 257 261 266 262 258 237 218 222 224 232 263 280 315 330 329 326 317 314 303 292 291 318 346 349 339 334 340 338 341 357 10 17 11 11 9 7 8 4 2 5 7 5 6 14 21 18 6 12 23 17 15 17 13 11 9 9 9 6
173 166 170 174 176 179 182 182 181 182 185 189 191 193 196 195 196 197 200 206 213 220 222 223 232 245 254 252 250 258 251 244 231 220 226 232 243 266 276 300 298 296 322 320 320 319 297 283 301 335 343 338 332 340 343 350 356 356 360 3 9 5 3 8 6 6 7 358 341 335 2 17 17 3 8 15 10 10 14 11 9 7 6 7 6
164 161 164 171 175 178 180 180 182 184 185 189 192 193 195 196 197 200 203 208 216 223 224 222 234 248 246 233 218 206 184 196 212 218 229 239 253 264 262 281 281 277 300 305 307 323 319 286 300 337 341 339 334 338 343 350 349 351 355 356 2 1 359 7 10 11 9 359 344 329 330 350 324 349 0 3 3 5 9 10 8 5 4 6 8
165 165 166 170 174 177 180 181 184 186 185 187 191 193 195 197 199 201 205 214 220 221 221 225 241 250 239 228 223 213 187 184 200 215 232 245 258 261 259 276 281 275 277 284 298 309 314 302 303 328 334 334 329 330 339 347 350 353 353 353 356 356 352 4 17 15 14 14 3 311 330 9 352 331 345 348 354 0 4 7 6 3 3 4 7
165 169 172 172 176 181 183 184 185 186 188 191 196 197 198 200 201 204 207 215 221 221 224 231 240 241 231 231 237 234 230 227 222 227 240 253 265 264 263 269 267 266 267 273 293 300 299 297 293 315 329 332 322 316 325 336 343 348 348 348 351 354 344 350 18 21 24 30 30 12 348 13 334 324 329 332 342 351 358 2 3 2 1 1 4
170 170 173 176 180 182 183 185 185 188 192 195 199 199 198 199 201 207 211 214 220 223 225 229 235 239 239 244 248 243 240 239 240 247 259 268 270 267 264 255 246 253 266 274 285 283 286 287 287 310 321 320 315 305 312 324 333 341 344 345 346 350 339 331 7 16 25 34 37 54 52 271 290 319 336 324 326 341 352 356 359 0 360 359 1
174 170 173 176 178 179 183 187 187 191 197 197 198 197 197 200 203 209 214 216 221 224 224 227 236 242 244 248 248 242 240 241 252 272 278 269 262 264 269 260 251 255 264 281 284 271 273 279 289 305 303 306 309 299 310 321 330 335 337 337 334 339 338 325 338 351 348 25 35 51 27 328 311 320 327 315 312 320 338 346 353 357 358 359 359
173 172 176 176 179 182 185 189 192 196 198 196 197 199 199 202 205 210 213 217 221 226 228 231 239 242 239 243 240 237 249 256 263 278 274 258 253 269 285 283 272 258 259 279 278 262 263 269 285 293 286 291 302 304 314 319 323 325 325 327 323 330 336 323 319 339 331 352 20 22 2 348 351 354 347 328 304 308 322 332 342 348 355 359 359
174 175 179 180 183 186 187 190 194 197 197 197 200 202 203 204 206 208 212 216 220 225 230 233 241 241 231 236 242 244 257 262 264 272 268 253 253 271 285 288 283 263 261 271 267 260 265 271 281 281 275 283 296 304 313 316 320 324 325 328 331 334 335 319 328 342 337 336 356 4 355 351 0 3 351 340 301 291 317 323 333 342 351 355 356
181 178 179 183 185 187 188 188 192 196 198 200 204 205 206 207 208 210 212 215 220 225 230 233 240 238 228 233 245 249 254 257 258 260 260 259 259 268 277 279 279 272 264 265 267 271 277 281 281 275 276 287 296 301 306 314 320 323 324 327 340 341 332 316 337 343 343 335 345 1 358 352 1 354 334 341 323 270 294 308 318 329 336 344 348
183 180 181 183 183 184 183 184 190 194 197 201 204 206 207 210 210 211 214 216 220 225 230 234 238 239 231 230 241 248 250 253 255 256 261 266 263 264 276 278 276 272 260 258 266 275 282 286 282 274 278 286 292 298 302 311 319 320 318 317 332 340 319 305 327 340 346 335 333 358 356 351 356 331 317 330 321 264 300 306 304 318 311 321 338
175 175 177 171 170 176 179 183 188 190 194 199 201 204 206 209 210 212 215 216 219 224 229 233 235 239 235 231 239 246 248 249 253 260 268 273 266 265 274 277 273 265 253 252 262 272 276 277 273 269 273 280 287 297 301 305 317 318 310 307 317 323 316 306 312 332 341 329 330 349 348 348 350 343 333 327 314 288 306 302 298 320 313 312 330
173 171 170 169 169 175 179 183 185 187 192 196 199 202 204 207 210 212 217 218 220 223 227 232 235 240 239 236 242 245 244 245 251 260 268 275 273 270 272 271 266 258 249 252 261 267 266 265 267 263 266 276 285 298 298 296 314 316 301 309 311 309 318 312 307 327 335 320 340 343 342 341 336 339 335 324 323 324 327 306 298 315 304 307 326
174 171 171 176 177 179 182 183 185 188 192 194 197 200 203 207 211 215 220 221 222 225 229 233 237 242 242 240 245 247 243 243 251 261 265 269 272 273 271 265 262 258 254 259 265 266 265 265 265 261 264 276 284 296 291 290 313 313 296 306 307 309 321 314 311 327 332 326 339 341 341 330 322 331 328 317 326 337 335 313 297 312 300 295 317
173 174 176 178 179 181 183 184 186 189 191 194 197 200 203 208 212 217 220 221 223 227 231 234 237 243 243 240 243 245 242 245 253 260 263 266 270 272 270 263 262 265 264 269 271 271 271 267 263 265 270 277 284 292 287 289 307 309 298 299 301 314 321 316 325 327 318 329 335 339 341 328 324 330 323 318 332 344 346 340 331 326 318 313 310
174 177 178 180 181 181 184 185 188 190 191 193 197 200 204 208 213 219 222 222 225 228 232 237 239 243 245 243 244 243 244 250 255 258 261 263 266 270 270 266 266 268 267 267 268 268 268 263 265 270 273 277 285 290 286 286 296 303 305 298 300 314 309 304 326 319 308 335 335 336 339 332 333 335 321 325 337 351 1 354 346 343 335 332 324
177 180 178 179 181 183 187 187 188 191 192 195 199 203 206 210 214 219 223 224 226 229 232 237 240 243 246 247 248 245 245 249 253 256 259 261 262 264 267 268 270 271 269 265 263 263 263 263 268 272 272 276 285 287 283 280 283 295 306 300 302 310 297 295 316 313 314 337 333 332 338 340 341 335 328 340 352 0 6 359 351 350 347 325 311
179 181 178 179 181 185 188 188 191 194 195 199 202 206 209 213 217 220 222 224 226 229 232 236 239 242 247 249 251 251 248 250 252 255 259 262 263 263 265 268 271 274 274 270 267 263 263 264 268 271 271 276 282 281 278 273 270 279 293 299 305 303 291 292 310 311 315 329 331 329 337 346 343 326 333 355 20 12 4 360 359 3 9 7 275
178 178 180 182 183 187 188 190 194 196 198 202 205 208 210 215 220 222 225 227 229 231 232 236 238 241 247 250 253 255 254 254 256 259 261 262 263 266 268 270 272 274 275 275 273 268 266 266 266 270 272 274 278 277 273 268 263 267 276 291 305 295 275 278 300 304 305 318 329 329 333 345 343 334 345 16 31 14 3 0 6 16 22 20 4
180 180 183 184 185 190 191 192 194 196 199 202 205 208 211 215 220 223 227 229 230 232 233 235 238 240 246 250 253 256 256 258 260 261 263 263 265 266 269 273 274 275 277 278 276 272 269 268 267 269 271 273 277 276 271 264 260 263 266 277 302 289 268 272 288 289 288 302 322 328 328 335 340 343 4 35 21 7 2 2 11 17 22 22 13
181 179 182 184 189 193 193 195 196 197 199 201 205 209 211 215 219 222 226 226 228 231 233 235 237 239 243 247 252 254 255 258 260 262 264 267 269 268 269 273 275 277 279 279 277 272 269 268 268 270 273 275 277 278 271 259 252 256 259 268 298 295 276 276 283 279 269 275 306 320 322 327 341 351 14 20 360 354 355 358 7 7 9 19 11
182 180 182 184 189 192 193 195 197 198 199 201 206 209 211 215 218 221 223 225 228 230 232 235 236 238 242 247 251 253 255 258 260 262 265 268 273 273 272 273 273 276 278 278 279 278 273 269 266 269 274 274 276 279 269 252 240 242 250 267 290 298 290 286 282 279 272 266 308 325 327 328 337 346 352 353 346 346 354 359 3 1 359 13 13
182 179 181 182 188 193 192 192 197 200 201 202 205 209 211 215 217 219 221 224 228 232 234 236 235 238 243 247 250 252 254 257 259 263 266 269 274 277 275 273 272 273 274 274 279 280 279 275 270 271 274 271 273 276 265 249 243 245 247 259 276 281 286 292 285 276 263 243 331 332 333 329 318 324 335 343 343 346 4 6 4 3 358 11 24
180 178 180 178 186 194 192 192 200 203 203 203 205 208 211 214 215 216 220 225 229 231 233 234 235 239 243 245 248 250 252 256 261 265 269 274 277 278 278 275 273 274 273 274 277 277 276 274 270 270 271 269 267 266 261 252 246 246 244 250 267 275 277 282 279 248 222 215 323 324 323 314 295 312 329 340 346 355 11 8 4 9 10 16 33
176 175 175 177 185 195 194 195 201 204 205 205 205 207 210 213 215 216 220 226 229 230 231 232 234 238 241 244 246 249 252 257 262 267 272 277 280 280 280 277 276 278 279 279 279 278 276 272 269 269 269 270 264 257 259 253 242 242 245 249 260 265 261 264 267 248 229 246 315 320 302 278 278 311 333 340 348 6 13 10 10 16 18 25 43
175 175 177 183 191 199 200 199 201 203 204 204 205 207 209 212 216 218 221 225 228 230 230 231 234 237 240 243 244 246 252 258 264 270 275 279 281 282 282 280 279 280 282 280 277 276 275 272 270 270 269 271 265 256 257 250 239 240 243 244 249 251 251 258 260 251 242 259 301 311 282 254 274 314 339 348 353 11 18 14 16 20 21 34 52
173 172 170 177 190 203 205 202 203 204 204 202 203 206 208 213 217 220 223 226 228 229 229 230 234 236 239 241 243 248 255 262 267 272 277 280 282 283 284 284 282 280 279 277 273 273 274 271 269 269 269 272 267 256 254 249 241 240 239 238 240 246 254 256 248 244 240 247 279 303 267 235 266 303 331 39 6 16 23 20 21 24 28 43 58
166 164 159 165 183 200 200 194 196 202 204 203 204 207 209 212 218 223 225 227 228 229 228 229 231 234 239 243 248 254 261 266 271 275 279 282 283 284 285 285 283 281 280 280 278 276 277 274 270 270 273 276 269 256 252 249 242 238 236 232 232 241 253 246 225 225 228 230 254 285 245 230 261 285 179 115 32 27 30 28 31 37 40 52 62
158 161 162 164 173 182 176 172 178 186 193 200 204 207 209 211 219 226 227 225 228 229 226 225 229 235 243 250 257 263 267 270 274 278 280 282 282 282 283 284 283 281 282 283 283 281 281 279 274 271 272 274 268 259 256 252 243 236 230 225 226 241 247 229 210 213 217 210 230 254 224 218 246 226 147 117 63 45 41 39 42 45 47 54 63
162 165 168 166 164 162 153 150 157 165 176 190 199 204 207 208 213 216 213 212 215 215 211 212 225 242 255 265 270 274 277 279 282 285 287 287 286 285 285 287 287 286 286 288 288 286 284 281 277 272 270 268 264 261 259 256 249 239 226 217 227 253 243 222 214 219 220 206 218 241 220 207 220 197 167 142 77 71 58 49 48 47 45 44 53
165 164 165 161 153 147 138 140 147 149 154 162 170 179 179 168 160 163 166 168 169 166 167 168 173 321 316 310 304 305 312 314 311 309 305 303 301 300 300 301 302 302 303 302 299 296 292 289 283 276 272 270 268 265 264 260 251 238 223 217 235 256 241 227 226 230 225 213 217 229 204 195 203 198 190 200 211 159 86 53 41 42 41 33 35
166 163 163 158 151 147 140 139 139 134 131 129 127 127 124 118 119 127 133 136 133 125 113 88 64 56 52 47 42 39 36 31 24 19 16 12 10 6 358 352 349 346 341 333 323 315 309 304 296 286 281 278 274 271 270 264 247 229 222 226 243 250 235 224 226 228 217 206 209 202 177 187 201 212 217 225 231 228 151 52 332 358 20 15 8
166 161 160 157 155 151 144 139 135 128 124 122 118 115 113 112 115 119 123 120 107 91 82 72 62 58 56 53 51 49 44 37 29 26 28 31 33 31 24 17 10 4 359 353 346 337 326 315 305 297 293 288 283 280 275 264 244 228 227 234 242 241 229 221 226 227 212 202 203 189 176 191 212 225 226 219 226 239 228 103 341 334 334 335 338
164 161 160 155 150 142 135 131 128 126 125 124 121 119 117 115 113 111 107 101 91 81 73 65 58 54 51 48 45 41 36 32 27 26 28 30 28 22 16 11 5 1 359 355 352 348 342 335 323 311 303 298 297 294 282 266 248 233 231 236 238 232 224 222 233 234 216 202 202 196 191 201 205 202 202 201 210 224 200 114 3 349 320 336 337
162 158 154 149 144 135 129 128 129 129 128 123 118 115 112 107 103 99 95 90 83 74 66 59 55 52 46 41 36 31 30 26 23 24 29 27 21 15 11 7 2 358 354 349 347 346 346 348 344 330 314 304 304 303 289 271 254 238 232 237 235 223 220 225 234 236 218 202 202 204 196 189 179 170 174 189 204 209 187 226 338 0 69 27 5
166 160 156 151 146 140 135 133 132 129 123 116 111 109 105 100 97 93 88 82 76 68 60 54 52 49 41 36 31 26 24 20 19 25 29 22 16 11 9 7 2 357 352 346 343 340 336 338 342 338 325 310 306 303 291 276 260 242 233 233 227 218 221 227 231 228 212 196 193 195 186 176 169 169 179 191 199 200 199 241 313 123 113 100 130
151 145 144 144 141 138 136 133 127 122 118 115 112 109 103 96 91 87 81 76 70 62 56 53 51 46 39 35 29 24 25 28 31 32 27 19 14 10 8 7 4 2 360 355 352 347 340 333 331 332 329 318 309 304 293 279 265 245 230 224 220 218 221 225 227 225 208 193 187 187 185 182 178 179 187 191 189 189 194 193 141 140 130 122 127
131 130 130 131 131 129 129 125 118 115 117 116 114 109 101 93 89 86 79 72 65 59 56 54 49 44 37 32 29 30 34 37 35 30 22 17 15 10 7 7 5 3 2 1 2 2 358 352 347 343 337 322 308 301 295 285 266 246 233 224 219 218 219 220 221 218 206 196 189 190 195 197 188 182 181 178 167 169 177 161 149 149 138 132 137
128 129 126 125 123 121 119 117 113 112 115 115 113 107 98 91 86 81 74 66 60 56 54 52 47 42 35 32 34 37 38 33 28 25 22 18 13 8 5 4 4 5 6 7 9 9 9 10 10 8 2 346 322 304 295 288 270 251 239 228 219 215 216 218 216 209 204 199 193 194 201 197 183 173 169 161 145 151 167 170 171 165 151 145 155
122 123 122 120 119 116 113 112 112 113 114 113 110 103 96 90 85 79 72 64 59 56 54 50 45 39 35 37 39 36 33 31 27 23 19 14 11 10 10 10 14 18 20 20 18 16 15 17 17 14 12 6 349 326 307 296 278 259 246 232 221 215 215 217 212 200 196 193 188 186 187 182 175 169 165 155 137 141 150 151 180 179 167 159 167
122 122 120 116 113 111 110 111 114 114 113 111 107 100 95 92 86 79 73 64 56 53 52 48 41 39 40 39 34 30 32 32 26 20 18 18 21 23 25 26 26 26 26 24 21 17 15 14 13 12 11 7 357 337 316 303 290 270 251 238 230 224 221 218 210 195 189 184 179 177 175 176 177 174 174 167 146 141 133 112 146 170 171 167 176
119 120 117 112 109 108 107 110 114 115 113 111 105 99 94 89 83 77 71 60 50 49 50 45 43 44 42 33 28 31 34 31 26 25 26 28 32 34 32 29 26 25 24 22 18 14 10 6 6 7 7 5 0 347 323 307 301 287 261 246 242 236 226 218 205 192 188 185 181 179 177 178 178 173 172 167 150 148 146 125 130 146 153 156 172
117 118 118 114 109 107 107 109 112 112 111 108 102 96 90 85 82 79 72 59 50 49 48 47 49 47 37 32 34 37 34 31 32 33 32 33 35 33 30 27 25 23 21 19 15 11 7 4 2 1 1 360 360 358 346 321 303 298 280 255 247 241 228 217 205 195 193 190 187 185 183 178 172 166 165 161 150 153 164 156 143 143 143 143 157
119 120 120 115 111 110 107 106 108 107 106 104 101 96 89 85 85 82 71 59 52 50 51 56 54 45 37 39 41 36 32 35 38 35 33 36 35 31 30 29 26 24 22 18 14 9 6 3 360 357 356 355 354 355 352 337 310 298 290 263 246 237 226 214 204 199 201 201 194 188 181 172 167 169 170 169 164 168 184 182 166 151 142 133 145
121 121 120 116 114 113 107 103 103 104 103 100 99 98 94 90 89 83 71 62 57 56 61 62 51 40 41 42 35 32 36 40 39 36 37 39 34 32 33 30 26 24 22 16 12 9 5 2 358 353 352 352 353 353 350 344 329 311 297 269 245 233 223 214 202 197 208 213 202 187 174 168 169 171 167 165 167 179 195 194 183 163 143 125 136
123 122 119 116 114 112 108 103 101 102 101 99 100 102 99 96 91 80 68 64 65 65 66 59 46 40 39 28 21 33 44 44 41 43 44 40 35 33 33 30 27 25 22 16 11 7 4 1 357 354 352 352 355 355 351 347 339 326 311 275 238 223 216 211 200 194 210 215 197 179 170 170 171 168 160 157 163 180 194 194 189 173 149 134 142
126 124 121 118 114 111 108 104 101 101 102 101 101 101 98 93 84 71 66 70 72 68 64 57 45 30 19 15 25 42 46 43 44 45 40 35 33 32 31 30 29 25 23 19 12 6 4 1 356 355 358 357 356 356 354 348 339 327 317 282 228 211 207 203 194 193 207 201 181 169 169 172 169 162 157 156 164 178 189 193 192 179 154 143 152
125 123 119 116 112 110 108 104 102 103 103 101 98 96 92 84 72 65 70 76 72 65 57 47 28 15 16 28 43 45 39 38 41 40 35 33 32 30 29 30 29 25 23 21 15 11 11 7 359 359 3 0 355 354 353 347 336 322 305 271 224 207 204 198 190 189 191 181 169 164 166 168 164 160 162 166 169 172 176 186 188 175 156 149 157
120 118 115 113 111 110 107 105 105 105 103 99 96 92 86 77 67 67 75 75 67 58 49 42 38 38 42 47 45 36 31 33 35 35 37 38 36 30 27 25 24 23 22 21 20 22 23 17 12 11 10 3 353 349 349 346 337 320 294 259 232 217 207 196 188 184 178 169 163 163 166 166 164 168 174 178 178 173 167 174 175 165 154 157 166
114 113 112 111 111 111 110 108 108 105 100 96 93 89 82 70 64 71 78 70 58 53 51 52 54 51 47 44 36 30 30 34 37 38 39 39 35 27 21 16 14 18 24 25 24 23 20 15 13 13 10 5 356 348 349 349 342 325 295 256 239 227 208 194 185 181 175 166 161 165 168 165 164 175 185 185 183 179 167 161 157 152 150 162 176
113 112 110 110 111 112 110 108 106 103 97 92 90 87 78 66 65 74 74 60 51 55 59 59 54 45 41 40 36 32 34 41 44 41 37 31 24 18 16 14 11 14 23 25 21 18 14 10 8 5 2 0 356 353 355 355 348 335 311 257 228 217 203 191 182 177 171 164 163 167 166 162 170 190 195 187 180 165 149 144 145 144 142 158 173